RH
8 11 16 22 24 28 28 27 29 28 27 25 25 27 31 35 42 45 42 43 40 35 34 28 22 30 24 24 26 26 25 29 32 30 27 42 39 35 30 28 30 30 25 19 12 23 18 20 18
7 7 15 19 21 24 22 24 30 26 24 27 27 32 37 39 39 43 44 42 41 37 35 32 26 23 23 26 29 28 26 23 23 26 29 32 46 43 43 37 32 30 26 20 13 18 14 15 14
7 9 13 17 22 21 14 12 24 23 21 23 24 27 34 41 41 42 43 41 41 39 36 35 32 24 21 29 29 29 27 27 26 27 33 38 44 45 46 41 32 30 26 20 13 15 13 10 11
9 12 13 17 17 14 9 7 10 21 19 18 20 21 28 41 44 44 44 43 42 41 40 36 37 31 22 25 30 33 30 34 29 28 29 32 38 38 37 34 33 28 19 14 14 13 15 12 10
11 12 15 21 19 13 10 8 7 9 15 19 20 19 23 32 42 46 47 46 44 44 43 40 38 36 32 29 32 33 32 30 31 28 24 25 29 31 33 33 30 23 18 16 15 11 13 12 10
15 15 17 16 14 12 10 9 9 9 8 10 15 17 18 22 35 40 43 46 46 47 46 44 43 41 43 34 28 31 28 32 30 25 18 18 25 28 29 27 19 17 18 17 14 10 11 12 12
30 22 19 19 16 12 8 7 9 7 8 9 10 15 16 16 26 32 38 42 43 48 48 47 46 46 45 39 32 29 31 32 28 24 19 17 16 16 16 13 14 18 16 16 12 11 11 12 13
32 35 35 25 16 13 9 8 8 8 7 6 10 13 14 16 19 23 30 37 39 41 45 47 48 49 45 41 35 32 32 31 28 20 20 21 19 19 16 13 20 23 16 12 11 11 13 15 14
29 34 36 34 32 22 12 11 9 9 8 7 8 9 13 18 22 23 27 31 36 39 44 46 48 50 50 48 44 40 34 27 22 23 21 20 20 20 19 19 22 23 17 10 12 12 14 15 14
23 30 24 25 29 29 27 16 12 12 12 11 9 9 11 15 21 21 22 25 28 33 37 42 47 49 51 50 48 44 39 32 25 23 23 22 20 20 19 22 23 27 18 12 12 14 15 15 16
22 20 18 16 19 27 30 31 21 14 14 12 12 10 13 16 19 21 22 24 24 27 34 37 40 45 48 50 49 48 46 41 34 27 24 22 21 21 21 23 29 29 28 15 13 16 17 16 17
23 20 19 16 16 20 23 30 32 28 13 13 14 15 15 18 20 20 21 22 24 26 27 32 34 41 43 46 47 51 53 47 42 36 30 25 21 22 23 25 28 30 29 23 16 16 17 19 20
23 21 20 19 19 19 20 21 27 32 29 16 15 16 17 18 22 23 23 23 26 26 28 29 32 35 38 41 43 49 53 51 47 44 37 30 27 23 23 31 30 31 30 26 17 17 18 21 22
23 24 23 22 22 21 22 20 23 18 31 31 18 16 18 21 22 25 26 25 24 22 27 30 35 43 46 46 43 41 48 52 51 50 46 38 32 31 29 29 33 33 32 26 19 18 21 23 23
28 27 23 22 22 23 26 25 20 16 22 32 32 17 18 22 27 28 28 28 26 23 25 29 36 46 54 58 50 46 42 50 49 51 50 43 37 32 29 31 30 29 31 28 23 21 24 26 25
31 33 33 20 21 23 27 23 12 16 22 22 32 33 18 21 24 28 31 32 30 28 26 27 33 34 45 57 61 56 51 46 48 51 50 48 42 33 27 30 32 30 28 26 25 22 25 26 27
36 30 27 24 25 28 34 25 18 16 21 22 28 36 30 19 24 26 27 32 32 27 25 25 33 40 35 47 57 62 60 57 48 52 52 51 47 39 28 24 26 25 25 22 19 20 25 26 27
28 47 35 36 29 34 32 30 23 23 25 24 28 37 39 26 19 27 28 29 31 29 26 27 27 31 40 44 51 60 60 59 50 49 50 50 51 48 33 27 26 25 25 22 22 24 26 28 30
45 49 51 38 36 43 41 37 24 24 26 29 29 37 47 43 26 22 24 25 27 29 27 28 29 28 37 43 49 52 54 55 47 50 53 48 49 51 46 38 30 26 25 23 22 26 31 32 33
35 45 41 41 46 62 60 57 36 34 31 33 33 38 48 52 41 26 23 23 23 26 26 24 28 28 28 36 46 48 51 51 54 61 66 62 57 50 47 47 44 32 26 23 23 28 31 34 36
29 40 36 47 40 50 72 83 60 44 40 41 42 43 54 62 55 40 28 25 23 25 26 25 28 30 28 30 37 47 51 53 56 62 75 67 59 66 60 54 50 47 37 27 23 27 32 32 34
36 29 38 42 54 63 55 79 77 69 58 49 48 49 56 65 67 54 40 31 28 26 27 27 30 34 31 31 29 36 44 48 48 54 77 66 64 59 65 61 59 55 51 46 30 28 33 35 36
39 39 45 44 55 62 43 82 45 68 84 75 59 60 61 71 73 66 55 41 33 31 30 30 31 35 37 35 31 30 32 43 51 55 63 59 57 68 71 68 66 62 59 56 49 39 35 36 38
29 44 41 39 51 69 41 61 87 96 96 90 77 67 69 73 78 76 65 57 43 36 34 33 35 40 41 39 36 35 35 43 50 55 55 51 54 72 77 74 73 61 62 62 57 55 54 42 41
30 52 69 71 73 55 24 56 89 95 96 97 83 74 68 76 83 82 76 66 55 44 40 39 37 39 42 43 40 38 43 47 59 53 45 41 47 58 69 68 61 64 69 64 69 65 64 65 58
42 72 88 86 88 62 54 83 86 93 96 97 98 85 71 74 92 90 82 74 70 56 46 43 41 41 44 46 45 43 45 48 47 39 32 29 33 41 50 59 60 66 68 66 74 77 76 68 64
58 76 79 92 65 93 80 92 97 97 95 96 96 93 80 74 85 97 92 83 75 69 58 50 46 44 46 47 46 45 46 44 40 34 33 34 35 38 48 54 69 66 68 68 67 70 77 77 74
59 66 78 96 97 92 96 96 92 96 97 96 97 97 89 81 83 97 96 93 85 75 68 61 53 49 49 48 47 48 46 47 44 45 43 39 39 38 45 54 60 61 63 66 64 65 71 75 72
71 79 85 92 96 96 96 98 98 96 97 97 97 97 95 86 84 89 97 97 96 87 78 70 61 53 49 50 50 48 48 47 47 50 48 47 45 42 42 45 53 59 56 57 61 66 69 66 73
76 87 93 98 90 96 97 98 98 97 94 98 97 98 95 90 86 85 95 97 97 97 91 82 75 67 57 51 50 50 50 49 48 47 49 52 51 49 46 47 50 52 55 61 70 74 73 67 65